Theta_e
333 332 332 333 332 333 333 334 332 332 335 336 335 332 334 335 335 335 333 330 328 326 323 324 324 323 323 323 324 324 325 326 326 325 326 327 326 326 326 325 324 324 326 327 327 327 327 328 328 329 330 331 332 332 332 332 332 331 331 332 331 330 331 331 331 329 329 329 329 329 328 325 326 327 328 330 330 329 329 329 328 329 329 330 331
333 333 332 332 333 331 332 334 332 332 334 335 334 333 333 334 335 335 331 327 326 326 326 324 325 324 322 322 323 324 324 324 322 320 322 323 323 323 324 323 322 321 323 324 326 327 327 326 327 328 329 330 330 331 332 331 331 331 331 332 331 330 330 330 331 331 330 329 329 330 331 330 329 328 326 327 328 327 328 328 329 329 329 329 329
334 334 332 331 331 331 333 335 334 333 334 334 333 333 333 334 335 335 329 327 327 327 327 324 323 324 323 322 323 323 323 322 321 319 320 320 321 323 324 323 322 320 321 322 323 325 327 326 326 327 328 328 329 329 331 331 331 330 330 331 331 330 329 329 330 331 330 329 329 331 334 333 332 331 329 328 328 326 326 326 327 329 331 330 329
335 335 333 331 330 332 334 336 335 334 334 335 334 333 333 334 335 334 330 328 328 326 325 323 322 324 323 323 323 323 322 321 321 320 321 321 322 323 323 322 322 321 321 321 321 323 325 325 325 326 327 327 328 329 329 330 329 329 330 331 331 330 329 328 329 330 329 329 331 332 331 333 334 332 331 331 330 329 329 327 327 328 329 330 329
333 334 333 332 331 331 333 336 336 335 334 335 336 335 334 335 335 333 331 329 328 324 322 322 322 323 324 322 321 321 321 321 321 322 322 322 323 323 322 322 322 321 321 320 320 321 321 323 325 325 324 325 326 327 328 328 328 328 329 330 330 329 329 328 329 329 329 329 331 331 331 334 336 332 331 332 330 331 330 328 328 327 326 327 328
332 332 333 333 331 330 332 333 336 337 335 335 337 336 335 335 334 331 331 330 327 325 323 322 322 323 322 319 320 320 321 321 321 322 323 322 322 322 322 321 320 320 321 320 320 320 320 321 322 322 321 323 326 327 326 326 327 327 328 329 329 328 329 328 328 329 329 328 330 330 331 333 332 331 333 333 329 329 329 329 329 328 326 326 327
331 331 331 333 331 329 330 332 334 336 336 336 337 337 337 336 334 331 331 329 326 325 324 322 321 322 320 317 319 321 320 320 321 322 322 321 321 321 322 321 320 320 320 320 320 320 319 319 319 320 321 322 324 324 323 324 326 326 326 327 328 328 328 329 328 328 328 328 329 329 329 329 329 330 333 334 333 331 328 327 328 327 327 326 326
330 330 331 332 330 329 330 331 333 335 337 337 337 337 337 337 334 331 330 328 326 325 323 322 321 319 317 316 319 322 321 321 321 321 320 320 321 323 323 322 322 321 320 320 319 320 319 317 316 318 319 320 321 320 321 323 324 324 324 325 326 326 326 327 328 327 327 326 327 328 328 328 327 328 329 331 334 335 331 330 327 324 326 326 326
330 330 331 331 329 328 329 331 332 334 336 337 337 337 337 337 335 331 330 328 327 326 324 321 318 316 316 319 322 322 321 321 320 320 319 320 322 323 322 321 320 319 319 318 317 318 319 316 314 315 315 315 316 316 317 319 321 321 321 322 323 324 324 325 326 325 324 323 325 325 327 328 328 328 328 327 331 334 333 333 328 324 326 326 325
331 330 331 330 328 328 329 330 331 332 333 335 337 337 336 337 334 331 329 328 327 325 323 320 316 315 318 321 322 321 321 320 319 320 320 321 321 320 320 320 320 319 317 316 314 315 315 315 315 315 315 315 314 314 315 317 318 319 319 319 319 320 321 322 322 321 320 320 320 320 323 326 327 326 324 322 325 327 327 326 322 322 325 322 321
330 331 331 328 327 328 328 329 329 330 330 331 335 337 336 335 333 331 329 328 327 325 322 319 316 317 320 321 322 321 321 320 319 320 320 320 320 320 321 320 320 317 314 313 313 313 314 314 314 315 315 315 316 316 318 318 318 318 318 318 318 319 319 319 318 317 316 317 317 317 317 320 320 319 317 318 319 320 322 321 317 317 319 316 315
327 331 333 331 330 329 328 329 328 329 329 329 332 334 333 333 332 331 330 329 327 325 321 318 317 318 320 321 321 320 320 320 319 320 320 320 320 321 321 321 318 316 314 312 311 313 314 313 313 314 314 315 317 317 317 317 317 318 318 318 318 318 318 319 316 315 316 315 315 315 315 314 314 314 314 315 315 315 318 317 315 316 317 315 314
327 329 332 335 335 330 327 329 329 328 328 328 330 331 330 331 330 330 330 329 328 324 321 319 317 319 321 322 321 319 319 319 318 319 320 319 320 321 321 320 318 317 315 313 312 313 315 314 313 314 314 315 315 315 314 314 314 315 316 315 315 314 316 318 317 315 315 314 314 314 313 313 313 314 314 314 314 314 314 314 313 314 316 316 315
328 329 332 337 337 331 328 329 330 330 328 327 329 329 328 329 329 329 329 330 328 323 321 320 317 320 322 321 320 319 320 319 319 320 320 319 320 321 320 320 319 318 316 315 314 315 316 315 313 312 313 313 314 315 316 315 314 312 313 314 313 310 310 313 315 316 315 314 314 313 312 313 313 313 314 313 313 313 312 313 313 313 314 314 313
328 330 333 335 333 329 329 330 331 331 329 328 328 329 327 327 328 328 328 329 328 324 322 321 318 320 323 321 319 319 320 320 319 320 320 319 320 320 320 320 319 318 317 315 315 317 317 315 312 310 311 311 313 316 316 316 314 312 311 312 311 310 308 307 310 313 314 314 313 312 311 311 312 313 312 311 312 313 312 312 313 315 318 316 314
330 331 334 334 329 327 329 330 332 332 331 330 328 327 327 325 326 328 327 327 327 325 324 323 320 320 323 321 318 319 320 320 320 321 321 320 320 321 320 321 320 319 319 316 315 317 317 315 312 310 309 308 312 315 315 315 314 311 310 311 312 312 310 306 307 310 314 314 313 312 310 310 313 313 311 310 311 313 313 312 312 313 317 318 316
332 333 335 334 328 326 327 329 332 332 332 333 330 328 327 324 324 325 326 326 325 325 325 324 322 321 323 321 318 320 321 321 320 320 321 321 320 320 320 321 320 319 320 318 315 316 317 315 313 312 309 307 311 314 314 314 314 313 313 315 316 315 313 310 308 308 311 313 313 312 311 309 311 312 310 310 311 312 312 312 312 311 313 315 317
332 333 334 332 327 325 326 327 329 330 330 332 331 329 328 326 325 325 324 324 324 325 324 324 324 322 322 322 320 320 321 321 321 320 320 322 320 319 320 321 321 320 320 319 316 315 316 317 315 314 312 309 310 314 314 313 314 314 314 315 315 314 314 314 312 308 308 311 313 313 312 309 309 311 311 310 310 311 311 310 311 311 312 314 314
331 330 332 331 326 324 326 326 327 328 328 329 329 329 329 328 326 325 323 323 323 325 324 324 324 323 323 322 320 320 320 319 321 320 320 321 321 319 319 320 321 320 320 320 318 317 316 317 316 315 315 312 311 314 314 313 314 315 314 315 313 311 313 314 312 310 307 309 311 312 312 309 308 311 312 311 310 310 310 309 309 310 310 312 312
330 328 330 329 324 323 326 325 326 326 326 327 327 327 327 326 327 325 323 322 323 325 325 324 324 324 324 323 321 321 319 318 321 321 319 320 321 320 319 319 320 321 320 321 320 319 318 317 317 317 317 316 313 314 315 313 314 315 314 314 313 312 314 312 310 310 309 309 310 310 310 308 307 310 311 310 310 310 310 310 310 310 310 311 311
329 328 330 328 323 323 325 324 324 324 324 325 325 324 324 325 327 326 324 323 323 325 324 323 324 324 324 324 323 323 322 320 321 322 319 320 321 321 320 319 320 320 320 321 321 321 320 318 318 317 317 318 316 314 315 313 314 315 314 314 313 312 314 312 310 311 310 310 311 311 310 309 306 306 308 309 309 309 309 310 310 311 310 310 309
329 328 329 326 322 322 324 323 322 323 323 323 323 323 323 324 325 325 325 325 324 324 323 323 323 322 323 324 324 324 324 324 323 323 321 321 321 321 321 320 320 320 320 320 321 321 321 320 319 318 318 318 318 316 315 314 313 314 314 314 314 313 314 313 311 311 310 309 311 311 310 311 308 305 306 308 309 308 308 309 309 309 308 308 308
327 328 328 324 321 322 323 321 321 322 322 323 322 322 323 323 323 324 324 324 324 323 323 323 324 323 324 325 325 325 325 324 323 323 323 322 322 322 321 320 320 320 320 320 320 319 320 320 320 320 319 319 319 318 317 315 314 314 314 314 314 313 313 313 312 312 310 309 309 309 310 311 310 306 306 308 308 308 309 309 309 308 307 307 307
325 326 325 321 320 321 321 321 320 320 321 321 321 321 321 322 323 323 324 323 323 323 323 323 323 323 324 325 325 324 324 323 322 322 322 322 322 322 322 321 320 320 320 320 319 319 320 320 320 320 320 319 319 319 318 317 315 314 314 314 315 314 313 313 313 312 311 310 310 309 309 311 310 308 308 308 308 309 309 309 308 307 307 307 306
323 324 323 322 321 320 320 320 319 319 319 319 318 318 319 320 322 322 323 323 323 324 324 324 323 323 323 324 323 322 323 323 322 322 321 321 321 322 322 321 321 321 321 321 320 320 320 320 320 320 320 319 320 319 319 318 318 316 315 315 315 315 313 312 313 313 312 311 312 310 310 311 311 310 309 308 308 309 309 307 306 306 306 306 305
322 323 322 321 319 317 317 318 317 317 317 316 315 316 316 317 319 321 322 323 323 323 323 324 323 322 323 323 323 322 323 323 322 321 321 320 321 321 321 321 321 321 322 322 321 321 320 321 321 321 321 320 320 320 319 319 318 317 316 315 315 315 314 312 312 313 312 311 312 311 310 310 310 309 308 308 308 308 307 306 304 304 304 304 304
323 322 321 320 319 315 313 314 315 315 315 314 314 314 314 314 315 317 319 321 322 322 322 323 324 323 323 324 324 324 324 325 324 322 321 321 320 320 320 320 319 319 321 321 321 322 321 320 319 320 321 321 320 320 320 319 318 317 316 316 315 315 315 314 312 313 312 311 311 311 310 310 309 308 308 307 307 307 306 303 301 301 302 301 301
322 322 322 321 321 318 313 311 313 313 313 313 313 313 313 313 313 313 314 316 317 319 320 322 323 322 322 322 323 323 323 324 324 324 323 323 322 321 321 320 319 318 319 320 320 321 320 318 317 318 320 320 320 320 320 320 319 318 317 316 316 315 315 314 313 313 312 311 311 310 309 308 308 307 307 306 306 306 304 300 297 296 297 296 296
320 322 322 321 323 321 314 311 312 312 312 312 312 312 312 312 312 312 312 312 314 314 315 316 317 317 317 317 316 316 316 317 319 320 322 323 322 322 322 321 321 321 320 320 319 319 319 318 317 318 320 320 319 319 320 320 319 319 318 317 316 315 315 314 313 312 312 311 311 310 309 308 307 307 306 305 305 304 302 299 296 295 294 294 294
319 320 320 320 321 318 312 311 311 311 312 312 311 311 311 311 311 310 310 310 311 312 313 313 312 312 312 312 312 312 313 314 315 316 318 320 320 321 321 321 321 320 321 321 321 321 321 320 320 320 321 320 320 320 320 319 319 320 319 318 317 316 315 314 313 312 312 311 310 310 309 307 306 306 305 304 304 304 302 299 298 297 296 297 297
320 318 318 320 319 315 310 310 310 310 310 311 311 310 310 310 310 309 309 309 309 309 310 310 309 309 309 310 311 310 311 312 312 313 314 315 316 317 318 320 321 320 320 321 321 322 322 322 322 322 321 321 320 320 319 319 320 320 319 319 318 317 315 314 313 312 312 311 310 309 308 307 306 305 304 304 304 303 302 300 299 298 299 299 299
319 318 316 318 318 315 311 310 310 310 309 309 309 310 309 308 308 308 308 308 308 308 308 308 308 307 307 308 308 308 308 309 310 310 310 311 312 313 314 316 317 317 318 320 321 322 321 321 322 322 321 321 321 321 320 320 320 320 320 319 318 317 316 314 313 312 312 311 309 308 307 306 305 305 305 304 304 303 302 300 299 300 300 299 299
316 318 318 316 314 312 310 309 309 309 308 308 308 309 309 308 308 308 308 307 307 308 308 308 307 307 307 307 307 307 307 308 309 309 309 309 310 310 310 311 311 312 314 316 317 319 320 321 322 322 321 321 321 321 321 321 321 320 320 319 318 318 316 314 313 312 311 310 308 307 307 305 305 305 305 304 303 302 301 300 300 300 300 299 299
313 316 317 314 310 309 308 308 308 308 307 307 307 308 308 308 307 308 307 307 307 307 308 308 307 307 307 307 307 307 307 308 308 308 308 308 308 308 309 309 309 310 311 312 312 314 316 318 319 320 320 320 320 320 321 321 321 321 320 319 318 317 316 314 313 312 311 310 308 307 306 305 305 305 304 303 303 302 302 301 301 300 300 299 298
312 312 313 311 308 308 308 308 308 308 307 307 307 308 308 307 307 308 308 307 307 307 307 307 307 307 307 307 307 307 308 308 308 307 307 307 307 308 308 309 309 310 310 311 311 311 312 313 315 316 317 318 319 319 319 320 320 320 319 317 316 315 314 313 312 311 310 308 307 306 305 305 304 303 303 302 302 301 301 301 300 299 299 298 298
313 312 311 309 308 308 308 307 308 308 307 306 306 306 307 307 307 307 308 307 307 307 307 307 307 307 307 307 307 307 308 309 308 308 307 307 307 307 308 308 308 309 309 310 311 311 311 312 313 314 315 316 317 318 318 319 319 319 318 315 313 313 312 311 310 309 308 306 305 305 304 303 303 302 302 301 301 301 301 301 300 299 298 298 297
310 310 310 309 309 309 308 306 306 306 305 305 305 305 305 306 307 307 307 307 307 307 307 307 307 307 307 307 307 307 308 308 308 308 308 307 307 307 308 308 308 308 308 309 309 310 311 312 312 313 314 316 317 317 318 319 318 318 316 313 312 311 310 308 307 306 306 305 304 304 303 303 302 302 302 302 302 302 301 300 299 298 298 297 297
307 307 308 308 308 308 306 305 305 305 305 304 304 304 305 305 306 306 306 307 306 307 307 307 307 307 307 306 306 306 307 307 308 308 308 307 307 307 307 307 307 307 307 307 308 308 310 311 312 312 313 315 317 318 318 318 317 315 313 312 310 309 307 306 305 304 304 304 303 303 302 302 302 302 302 302 302 301 300 298 298 297 296 296 296
305 305 305 305 305 305 305 304 304 304 304 304 304 304 304 305 305 305 305 305 306 306 306 306 307 307 307 306 306 306 306 307 307 307 307 307 307 307 307 306 306 307 307 307 308 308 310 311 311 312 314 315 316 317 317 317 315 312 310 309 308 306 305 303 303 303 303 303 302 302 302 302 302 301 301 301 300 299 297 297 296 295 295 295 294
304 304 304 304 304 303 304 304 304 303 303 304 304 304 304 304 304 304 305 305 304 305 305 305 306 306 307 307 307 306 306 306 306 306 307 307 307 308 308 307 307 307 307 308 309 310 311 311 311 312 313 314 315 315 313 313 312 310 307 306 305 305 304 303 302 302 301 301 300 300 299 299 299 299 299 298 297 296 296 295 295 294 294 293 293
303 303 303 304 303 303 304 303 303 303 303 303 303 303 303 304 303 304 304 304 304 304 305 305 305 306 306 307 307 306 306 306 306 306 307 307 308 308 308 308 308 307 308 309 310 310 310 310 310 311 312 312 312 312 310 308 308 308 306 305 305 303 302 301 300 300 299 298 297 297 296 296 296 297 297 296 296 296 295 295 294 293 293 292 292
302 303 303 303 303 303 303 303 303 303 303 303 303 303 303 303 303 304 304 304 304 305 305 305 305 305 305 306 306 306 306 306 305 306 306 307 308 308 308 308 307 307 309 310 310 309 308 308 308 308 309 309 309 309 307 305 304 304 304 303 303 301 300 300 299 299 298 297 295 295 295 296 296 296 296 296 295 295 294 293 293 293 292 292 292
301 301 302 302 302 303 303 303 303 302 302 303 302 303 303 303 303 303 303 303 304 304 304 304 304 304 304 305 305 305 305 305 305 305 306 306 306 307 307 307 307 308 310 310 309 308 306 306 305 306 307 306 304 304 304 303 302 302 301 301 300 299 298 298 297 296 295 294 294 295 296 296 296 296 296 295 294 293 293 293 293 292 292 292 292
299 300 300 300 301 301 302 302 302 302 302 302 302 302 302 302 303 303 302 303 303 303 304 304 304 304 304 304 304 304 304 304 304 304 305 305 305 306 307 307 308 310 311 309 308 307 306 305 304 304 303 302 300 299 300 300 300 300 300 299 298 298 297 296 295 293 293 293 294 295 296 296 296 295 295 294 293 293 293 293 293 292 292 292 292
299 299 300 300 300 301 301 301 301 301 301 302 302 302 302 302 303 302 302 303 303 303 303 303 303 303 303 304 304 304 304 303 303 304 304 304 304 306 307 308 309 310 311 309 307 307 306 304 303 302 301 298 296 296 297 297 298 298 298 298 297 296 295 294 294 294 294 294 295 295 296 295 295 295 294 294 294 294 293 293 293 293 292 292 292
299 299 299 300 300 300 301 301 301 301 301 301 301 302 302 302 302 302 302 303 303 303 303 303 303 303 303 303 304 303 304 304 304 304 305 304 305 306 308 309 309 310 310 309 307 306 305 303 302 302 300 296 295 296 297 297 297 297 296 295 295 294 294 294 294 295 295 295 295 295 295 295 294 294 294 294 294 294 293 293 293 292 292 291 291
299 299 300 300 300 300 301 301 301 301 301 301 302 302 302 302 302 302 302 303 303 303 303 303 303 303 303 304 304 304 304 304 304 305 305 305 306 307 308 309 309 309 309 308 306 306 304 303 302 301 298 295 295 296 296 295 295 295 295 295 295 295 295 295 295 295 295 294 293 293 294 294 294 293 293 293 293 292 292 292 292 291 291 291 291
299 300 300 301 301 301 301 301 301 301 301 301 301 301 301 302 302 302 302 302 302 303 303 303 303 303 303 304 304 304 304 304 304 305 305 306 307 308 308 308 308 308 308 308 306 305 305 304 302 299 295 293 294 295 294 294 295 295 295 295 295 295 295 295 294 293 293 292 292 293 293 293 293 293 292 292 292 292 292 291 291 291 291 291 290
299 300 300 300 300 300 300 300 300 300 301 301 301 301 301 301 301 301 302 302 302 302 302 303 303 303 303 303 303 304 304 304 304 304 305 306 308 308 308 308 308 308 308 308 307 306 305 304 302 299 296 294 293 293 294 295 295 295 295 295 295 294 293 292 292 292 292 292 293 293 293 292 292 292 292 292 291 291 291 291 291 291 291 290 290
299 299 300 300 300 300 299 299 299 299 299 299 300 300 300 301 301 301 301 302 302 302 302 303 303 303 303 303 303 303 303 303 304 304 304 305 307 307 307 307 307 307 307 307 307 306 305 303 301 299 297 295 294 294 295 296 295 294 294 293 292 292 291 291 292 292 293 293 293 293 292 292 292 292 291 291 291 291 291 290 290 290 290 290 290
299 299 299 299 299 299 298 298 298 298 298 298 299 299 299 299 300 300 300 301 301 302 302 303 303 303 303 303 303 303 303 303 304 304 304 305 305 306 306 306 306 306 306 306 306 305 303 302 301 298 296 295 295 296 295 294 293 292 291 290 291 292 292 292 292 292 292 292 292 292 292 292 291 291 291 291 291 290 290 290 290 290 290 289 290
Wind_Speed
12 19 22 23 25 26 24 24 29 29 25 24 24 24 24 23 23 24 23 23 22 22 21 19 19 18 17 18 17 17 16 17 16 14 13 12 12 12 11 11 9 10 9 8 6 4 6 6 5 4 3 1 3 6 8 9 6 6 6 6 6 7 7 7 8 10 8 6 4 3 3 3 4 4 4 3 0 1 3 4 4 3 1 3 4
12 16 19 23 26 25 24 27 30 29 27 26 26 26 25 24 24 23 23 24 23 22 20 19 19 18 17 17 18 17 14 13 12 11 11 10 11 11 10 10 9 9 10 11 9 6 5 6 6 6 5 4 2 3 5 7 6 9 10 7 6 8 8 8 10 10 7 6 5 3 1 1 2 4 5 5 5 4 5 5 4 3 3 2 3
12 14 15 20 24 23 23 26 29 30 29 26 26 26 25 24 23 23 24 23 21 19 19 19 18 18 18 19 21 19 15 14 14 13 12 11 12 12 11 11 11 11 10 10 11 10 8 7 7 7 8 7 5 4 4 5 6 10 10 7 6 7 6 7 10 9 7 7 5 2 2 1 0 2 3 5 7 8 7 7 7 4 2 4 5
12 13 11 15 20 20 22 24 25 28 29 26 27 27 25 25 24 23 23 22 20 19 21 20 18 20 22 22 23 22 20 18 17 15 14 15 14 13 12 12 13 14 13 10 10 12 11 7 7 8 9 8 7 7 6 5 3 6 9 8 8 8 6 7 8 9 8 7 4 1 1 2 1 1 3 4 5 5 6 6 6 6 4 5 6
14 13 11 12 15 17 22 24 23 25 27 27 27 28 26 25 24 23 22 21 20 21 22 22 23 26 26 25 24 23 22 20 18 17 16 16 15 13 12 11 11 13 14 12 11 12 12 9 9 10 10 8 7 10 10 7 5 3 5 8 8 7 7 7 6 7 9 7 4 3 1 1 2 2 3 2 3 3 3 4 4 5 4 4 5
13 14 12 11 13 16 20 23 22 22 25 27 27 27 26 25 24 23 21 21 21 22 22 22 24 27 26 26 25 23 22 20 19 20 18 16 15 14 13 11 10 11 12 11 10 11 13 12 11 11 12 12 10 12 14 11 9 10 6 4 6 6 7 8 6 5 8 8 5 4 1 1 3 3 2 1 1 1 2 3 4 4 4 4 4
10 12 12 12 14 16 17 22 24 22 23 27 28 27 26 25 24 23 21 21 23 22 22 22 23 23 23 23 24 24 22 20 20 20 18 16 16 15 14 14 13 13 11 9 9 10 12 13 13 13 15 17 16 16 16 13 11 12 11 8 7 7 7 9 8 6 6 7 7 4 2 2 4 4 2 2 1 1 2 3 4 5 5 6 7
12 11 12 13 15 18 20 24 28 26 24 25 27 26 25 26 25 23 21 21 23 23 22 22 22 22 22 22 23 23 23 22 22 20 18 17 18 17 15 15 13 13 12 10 9 10 11 14 16 16 15 15 15 16 16 15 14 12 12 11 9 7 6 8 9 8 7 5 4 5 3 3 4 3 2 3 2 1 2 3 4 5 7 8 8
12 12 12 12 16 22 25 27 29 29 26 24 26 26 24 25 26 23 22 22 22 23 22 23 23 23 23 24 24 24 23 23 22 20 18 17 19 18 15 15 13 12 12 12 12 10 10 13 16 16 15 13 13 13 13 14 14 13 13 13 11 9 7 8 11 10 9 7 4 2 3 4 4 2 1 1 1 1 1 3 3 3 5 6 8
11 12 13 15 21 25 26 27 26 27 27 24 24 25 24 25 26 23 23 24 23 23 24 24 24 25 25 25 27 27 25 23 22 21 19 19 19 17 15 16 15 13 12 12 12 11 10 11 14 16 14 13 13 14 14 13 13 12 12 12 13 13 11 11 11 11 12 12 9 8 5 5 4 3 4 4 2 1 0 1 2 4 3 4 4
10 11 11 14 18 21 23 24 24 24 25 25 23 24 25 26 26 23 23 26 25 24 26 26 26 27 25 26 29 28 26 25 24 23 21 19 19 17 16 16 15 13 12 11 11 12 13 12 13 14 14 13 13 15 15 13 12 12 12 12 12 12 13 13 12 12 13 14 14 14 14 12 9 8 8 9 7 4 2 1 4 6 3 5 9
6 7 7 8 10 13 17 20 21 22 23 24 23 24 25 25 27 24 21 25 28 27 27 28 29 27 25 27 29 27 26 26 25 24 22 20 18 17 17 15 13 12 11 11 11 13 13 12 13 13 12 12 12 13 12 11 11 11 11 11 10 10 11 12 12 12 12 14 15 14 14 14 13 11 9 10 10 8 6 3 6 8 5 6 10
7 6 5 5 5 8 13 16 18 21 23 23 23 25 26 25 27 26 21 23 28 30 30 30 30 27 25 27 27 25 26 25 24 24 22 20 20 19 17 14 13 12 10 11 11 13 12 10 11 12 11 11 12 12 10 9 9 10 10 11 10 10 10 10 11 12 12 13 13 12 12 12 12 11 10 10 9 9 10 7 8 9 6 7 9
8 8 7 5 4 3 9 16 19 21 23 24 25 26 26 27 28 27 23 22 26 30 30 29 31 27 23 26 27 25 26 23 22 23 21 19 19 17 15 14 12 11 10 10 10 12 11 8 8 10 10 11 12 11 9 8 8 10 11 12 11 10 10 10 10 10 11 12 11 10 10 11 10 9 8 9 8 9 11 8 7 8 7 8 9
8 7 6 5 6 8 3 11 19 20 22 24 25 24 24 26 28 28 27 25 24 28 30 27 29 26 21 25 27 25 25 22 20 21 19 18 18 17 15 14 12 11 9 9 9 10 9 7 7 8 9 9 11 11 9 8 6 7 9 10 10 10 10 10 10 10 11 11 11 9 9 10 9 8 7 8 8 9 10 9 8 6 5 7 7
7 7 7 6 8 11 11 5 13 18 19 22 23 23 22 23 27 29 28 23 16 18 21 21 25 23 18 23 27 24 23 21 19 19 18 17 17 16 15 14 12 11 10 9 9 9 7 6 6 7 7 9 11 10 8 6 5 6 9 10 10 9 9 10 10 11 12 12 10 8 8 10 8 7 8 8 8 8 9 9 9 7 4 3 4
7 7 6 6 8 11 14 13 11 15 17 19 21 23 23 23 25 26 24 18 10 5 6 9 16 18 15 20 25 23 22 21 20 19 17 17 17 14 14 15 14 12 11 10 9 9 7 5 5 6 6 8 10 9 7 6 5 5 7 9 8 7 6 8 9 10 11 11 10 7 6 8 7 7 9 10 10 8 8 7 7 7 5 3 2
8 7 6 6 7 9 12 16 15 15 15 17 19 21 24 23 22 22 19 15 13 14 13 10 12 15 14 17 22 22 21 19 19 20 17 16 17 15 13 14 15 13 11 10 9 9 8 6 5 5 5 7 9 9 7 7 6 4 6 6 5 6 6 6 6 6 8 10 9 7 5 6 8 8 9 9 9 8 7 5 4 4 4 3 2
6 6 6 5 6 9 13 15 14 14 13 12 12 14 18 20 22 24 23 20 18 20 23 20 16 16 15 16 18 18 19 18 17 20 18 16 18 17 14 13 14 13 12 10 10 9 9 7 7 6 5 5 7 8 7 8 8 6 6 6 5 5 6 5 5 3 6 9 9 7 4 5 7 7 7 6 5 6 6 6 5 4 3 2 1
5 5 5 6 8 12 15 16 15 15 14 12 9 7 6 8 20 29 28 26 23 20 23 23 20 17 15 15 16 16 18 17 16 19 21 18 17 17 15 13 13 12 11 10 9 9 9 8 8 8 8 7 6 8 8 7 9 8 7 7 6 6 6 4 4 3 3 6 7 5 3 3 5 6 7 6 3 2 4 5 3 3 3 1 3
6 5 5 6 10 14 16 18 18 18 17 15 14 14 15 12 17 30 28 26 25 22 24 24 21 19 16 15 16 16 17 17 16 19 22 19 17 16 15 14 13 12 11 10 9 9 8 8 9 10 10 9 8 9 10 9 9 9 8 8 7 8 8 6 5 5 4 3 4 2 1 0 2 4 6 6 3 3 2 3 3 1 2 2 3
6 6 4 5 8 12 14 17 18 18 18 17 16 18 21 21 17 21 23 26 27 24 24 24 21 22 20 18 18 16 16 17 17 20 21 20 19 17 16 15 15 13 12 11 10 10 10 10 10 11 12 12 11 10 11 11 10 10 9 9 9 9 10 9 7 7 6 5 5 4 4 3 1 1 4 4 3 3 3 3 4 2 2 3 3
7 6 5 5 9 12 13 15 16 16 15 15 16 18 21 24 22 18 16 19 23 23 24 22 20 21 20 20 20 18 19 19 18 19 19 19 20 18 17 16 16 15 14 13 13 12 12 12 12 12 13 14 13 12 12 12 12 12 11 11 12 11 11 12 11 10 9 7 7 7 6 5 4 2 2 3 2 2 1 0 1 1 2 3 3
7 6 5 7 10 11 11 11 13 14 13 13 14 16 17 19 22 22 18 14 14 16 18 18 17 19 19 19 17 15 15 16 17 19 19 18 18 19 19 18 17 17 15 13 14 14 14 13 14 15 15 15 15 16 15 15 14 14 14 14 14 14 13 13 14 13 12 10 10 9 8 7 6 4 2 1 1 2 2 3 3 2 2 3 4
6 6 6 7 8 8 9 10 12 13 13 13 14 14 15 16 17 20 20 18 14 13 14 14 13 15 15 13 12 11 11 12 15 17 18 17 17 17 17 17 17 17 15 13 13 13 13 13 14 16 16 16 17 18 18 19 18 17 17 17 17 17 16 15 16 15 13 13 13 11 8 8 8 6 4 3 4 4 5 4 4 4 4 5 6
6 6 5 6 7 8 9 11 12 13 13 14 15 15 15 14 14 14 16 18 17 15 14 11 10 10 9 7 7 8 9 10 12 13 14 14 15 15 15 15 15 15 14 14 15 15 13 11 12 13 14 15 17 20 21 21 21 20 20 20 20 21 19 16 17 16 13 13 14 11 9 9 9 7 6 7 7 7 7 6 5 5 6 6 7
5 6 5 5 6 7 10 13 14 15 15 15 15 15 16 15 14 12 12 13 14 14 13 12 10 10 10 8 8 7 7 7 8 8 9 10 11 13 14 16 15 14 14 15 17 17 15 13 13 13 13 13 16 21 22 21 21 21 21 21 22 22 21 19 18 17 15 14 13 12 11 10 10 9 9 9 10 9 8 7 7 7 8 8 8
6 7 6 7 6 5 7 12 14 15 16 16 15 15 15 14 13 11 11 11 12 12 13 13 13 12 11 10 10 9 8 7 7 7 7 7 8 11 13 15 15 16 17 18 19 19 19 18 18 17 17 17 16 18 21 22 22 22 22 23 23 24 22 20 20 19 17 16 15 13 12 12 12 12 11 11 11 10 8 8 10 10 10 10 10
7 7 6 6 7 6 7 10 14 16 16 16 16 16 14 13 11 10 11 11 11 12 12 12 13 12 10 9 8 7 7 7 6 5 5 6 7 9 11 12 13 14 16 17 18 19 20 21 20 19 19 20 20 19 20 21 23 23 23 23 24 25 24 22 21 21 19 18 17 15 14 14 13 13 13 12 12 10 9 11 11 10 10 10 10
4 7 7 6 6 7 9 12 13 14 15 15 15 16 15 14 11 9 9 10 11 12 13 12 11 10 9 9 8 7 7 7 5 4 5 5 6 7 8 10 9 9 10 11 12 15 18 20 21 21 21 22 22 23 22 21 22 23 24 24 23 23 25 24 23 22 20 19 18 17 17 15 14 14 14 13 13 12 12 12 10 9 9 8 8
3 6 8 8 6 7 9 12 12 11 11 12 13 14 14 13 12 11 9 9 9 10 11 12 11 8 8 8 8 7 7 6 5 5 4 4 4 5 7 9 9 9 10 10 12 14 16 18 20 21 22 23 23 24 24 23 22 22 24 25 24 23 25 26 24 23 22 20 19 18 17 16 15 15 15 14 13 13 14 13 10 8 7 7 8
8 8 9 9 7 8 9 10 10 8 8 8 7 11 13 10 9 10 10 8 8 7 7 8 8 6 6 8 8 6 5 5 6 5 3 2 2 2 2 5 7 7 8 10 13 15 16 16 17 18 19 20 20 21 22 23 24 24 24 26 25 23 25 27 26 24 23 21 19 18 16 15 15 15 15 14 14 14 15 13 10 8 8 8 8
3 6 8 7 6 9 12 13 12 9 10 13 11 10 11 7 5 6 6 6 7 7 6 6 6 5 5 6 7 5 4 5 6 4 2 1 1 1 2 3 5 5 5 6 8 11 12 13 15 16 16 16 17 17 18 20 21 23 24 25 25 24 26 28 26 24 23 21 19 17 16 15 14 14 14 14 14 14 13 13 12 11 10 9 9
7 6 7 8 9 11 14 15 14 11 10 10 8 7 6 4 2 3 3 3 5 6 7 6 5 4 4 5 5 4 4 4 5 4 2 1 2 2 3 4 5 6 6 7 8 9 10 11 13 13 13 14 15 16 16 16 17 19 21 23 23 23 26 26 23 21 20 19 17 17 17 16 13 12 12 12 11 12 13 13 13 12 11 10 11
8 8 8 9 10 11 13 15 12 9 9 10 7 2 3 1 3 5 5 4 3 4 5 7 6 4 5 5 5 6 6 4 4 3 2 2 2 3 4 5 6 7 8 9 10 11 11 12 13 14 14 15 15 15 15 16 16 16 17 18 20 21 23 22 20 19 19 17 16 16 16 14 11 10 9 9 10 11 13 13 12 11 12 12 14
7 8 10 12 12 12 10 10 9 6 7 11 10 5 3 4 3 3 4 5 6 6 4 4 6 6 5 4 5 6 7 6 5 4 4 4 4 5 5 6 6 8 8 9 11 12 13 14 14 14 15 16 15 15 15 15 14 14 15 18 20 20 20 20 19 18 18 17 16 15 14 12 10 10 10 10 11 13 14 14 13 13 14 15 16
8 10 11 10 8 8 6 8 9 8 8 9 9 8 8 7 6 5 5 5 7 7 6 5 6 7 7 6 5 5 6 6 6 6 6 6 6 6 6 6 8 9 10 11 12 12 13 14 15 15 15 16 16 15 14 14 13 13 16 19 20 19 19 19 17 16 16 16 14 11 9 8 10 11 10 11 12 13 14 14 14 15 15 15 15
7 8 8 5 1 2 4 6 7 7 7 8 9 9 9 7 7 8 9 10 10 9 8 7 7 7 6 6 5 4 5 6 7 7 8 8 7 8 8 8 9 11 12 13 14 14 14 14 15 15 15 14 14 13 13 12 12 14 18 19 19 19 18 17 15 13 12 10 8 6 6 8 11 11 11 11 12 13 14 14 14 14 14 15 16
9 8 10 9 8 6 2 5 3 4 6 8 9 10 9 9 10 10 10 11 12 12 10 8 6 5 5 5 4 5 6 6 7 8 9 9 10 11 11 10 11 12 13 14 15 16 15 14 14 13 12 11 11 11 11 12 13 16 18 18 18 18 17 14 12 10 7 6 6 7 8 10 11 11 11 12 13 13 12 12 13 14 16 18 19
11 10 11 11 12 12 7 3 4 6 7 9 9 9 8 9 10 11 12 13 14 14 14 13 11 10 9 9 9 9 10 10 11 13 13 14 14 13 12 12 11 12 14 15 14 12 11 9 9 9 9 9 9 11 12 13 16 17 17 16 16 16 14 12 11 10 9 7 6 6 6 6 6 7 9 11 10 10 11 12 14 16 18 19 18
16 15 15 13 12 12 11 11 11 11 10 12 13 13 13 14 15 15 14 15 16 15 15 15 15 14 13 13 12 12 13 13 14 14 15 15 14 13 12 11 11 12 14 13 9 7 6 6 6 6 7 8 9 12 15 16 17 17 17 15 14 13 12 13 13 13 12 8 3 2 2 3 5 7 8 8 9 11 13 15 16 16 16 16 16
22 21 19 17 16 14 13 15 17 15 12 13 15 17 17 18 18 17 16 16 16 16 16 16 16 16 15 15 15 15 15 15 14 14 14 14 13 12 13 12 12 13 12 8 6 7 6 6 6 6 7 9 12 14 17 18 18 16 15 15 14 12 12 12 12 10 8 5 1 2 2 4 6 6 7 9 12 14 15 14 13 12 13 14 14
21 20 19 19 19 18 17 18 18 17 16 15 14 14 15 16 16 16 16 16 16 15 15 16 17 17 16 15 14 14 14 14 14 14 15 15 15 15 15 14 13 12 9 8 8 8 8 7 7 7 8 12 15 17 18 18 18 16 15 13 12 11 10 8 6 4 2 2 1 2 2 3 6 7 10 13 14 13 12 11 10 10 11 12 14
19 20 21 21 20 20 20 20 19 20 21 19 15 12 11 12 12 12 13 14 14 14 15 15 17 18 19 18 18 18 18 17 17 16 16 17 18 18 18 16 14 12 11 11 10 9 8 8 9 10 11 14 17 18 18 17 17 16 15 12 9 7 5 4 3 2 2 3 3 3 4 5 8 11 13 13 11 9 9 9 8 10 11 12 14
21 24 26 23 19 17 17 18 18 18 18 16 13 10 10 10 10 12 13 13 14 15 15 16 18 19 20 21 21 21 21 21 20 20 21 22 22 21 20 17 14 13 13 13 12 10 9 10 11 11 13 16 18 18 17 16 14 13 12 10 7 5 4 3 3 4 4 4 4 5 7 9 11 11 10 9 9 10 11 11 11 11 12 12 13
20 22 24 21 17 16 15 16 17 16 15 15 15 15 14 14 14 14 15 15 14 15 15 16 17 19 20 21 20 20 19 18 18 18 18 20 21 20 18 16 15 14 14 14 14 13 11 12 12 12 15 18 19 18 16 15 13 10 8 7 6 5 5 5 4 4 3 3 5 7 8 8 7 7 7 8 9 9 10 10 10 11 11 12 13
19 20 20 19 18 16 14 13 15 16 16 17 17 17 17 18 18 18 18 18 18 17 17 17 17 17 18 19 19 18 17 16 17 16 12 10 10 11 13 14 14 13 14 15 16 16 15 14 14 15 17 19 19 17 16 13 12 10 9 8 8 6 5 4 2 2 3 5 5 4 4 4 4 6 8 9 9 9 9 9 10 11 13 14 16
20 20 18 16 15 15 14 13 13 15 17 18 18 18 19 20 20 20 20 20 20 21 20 20 20 19 19 19 18 17 15 14 14 12 8 4 6 9 11 12 12 12 14 16 18 17 16 15 16 17 18 19 18 17 15 13 12 11 10 9 7 5 3 1 1 3 4 4 2 2 4 5 6 8 10 11 12 12 12 13 14 16 17 19 20
19 19 17 15 14 13 13 13 14 15 16 18 18 18 19 19 19 20 20 20 21 22 23 24 24 23 22 21 20 19 17 14 10 8 7 7 8 11 12 12 12 13 14 15 16 16 16 15 16 18 19 21 20 18 15 13 11 10 8 6 5 4 3 3 2 2 3 3 4 5 7 8 9 10 11 12 13 14 15 16 17 18 19 20 21
17 18 17 15 13 12 13 14 15 16 17 19 20 21 21 20 20 20 20 21 22 23 24 25 24 25 25 24 22 22 20 17 13 12 11 10 10 11 12 12 11 11 11 10 10 13 15 16 17 17 18 21 21 17 14 12 10 8 7 6 6 7 7 7 6 5 6 6 6 6 8 8 9 10 11 12 13 15 17 18 19 19 20 20 20
16 16 16 15 13 13 14 15 16 18 19 20 21 22 22 22 22 21 21 21 22 22 22 23 24 25 26 26 27 26 22 17 16 16 16 15 14 13 11 9 7 6 7 8 10 13 16 17 17 17 17 18 17 16 14 12 9 8 8 9 9 10 10 9 8 6 6 6 6 6 6 8 9 10 10 12 14 15 17 18 19 19 20 20 20
Wind_Direction
170 170 170 168 174 181 181 175 161 156 159 158 158 159 154 154 151 150 151 148 147 145 141 140 139 138 134 133 132 126 125 122 117 117 116 113 109 102 100 97 91 94 99 93 86 79 73 74 77 74 55 56 213 213 210 205 188 184 190 183 186 188 186 180 181 197 201 189 190 219 238 241 236 224 211 211 341 313 291 308 302 288 263 135 162
161 168 170 167 177 182 171 163 158 157 159 160 162 162 160 161 157 157 157 152 149 146 147 146 146 148 143 139 139 135 134 126 114 115 114 113 112 102 97 93 87 101 111 100 97 118 114 93 85 79 71 73 119 189 207 202 191 205 206 189 179 180 184 183 174 176 180 177 170 166 188 227 255 245 235 243 252 257 276 296 308 307 274 240 202
155 165 167 163 173 177 165 160 160 160 160 161 164 165 165 165 164 164 161 155 153 155 159 155 153 155 147 144 141 133 130 125 112 111 110 107 106 99 96 93 90 102 115 106 94 107 117 102 90 86 81 80 88 109 143 170 194 221 213 195 200 190 178 183 181 182 180 169 156 148 164 165 237 254 227 229 238 250 268 277 282 290 272 258 247
154 162 161 157 166 168 161 159 158 160 163 163 165 168 168 169 171 169 163 160 157 154 155 149 147 147 140 139 138 129 124 122 115 112 108 106 104 98 96 95 95 98 104 109 101 98 99 101 103 96 87 76 73 88 106 129 168 224 210 199 209 198 177 181 193 198 184 164 143 138 135 110 128 193 180 195 216 232 246 254 263 271 268 271 268
154 160 161 156 160 163 162 161 157 161 166 167 168 170 170 172 175 174 168 167 163 154 151 144 138 136 132 130 130 127 127 126 122 118 112 110 107 102 104 103 100 101 102 106 107 95 84 94 117 105 86 77 82 93 96 98 95 109 184 197 200 194 186 180 187 197 189 175 150 129 90 53 199 182 143 168 202 195 215 230 242 256 261 273 277
154 158 163 160 159 162 166 168 166 167 171 172 172 171 172 174 176 179 175 172 169 162 159 153 144 141 138 134 133 133 135 133 131 127 121 117 113 107 104 105 101 104 111 107 99 91 81 86 108 110 94 94 108 105 92 85 84 80 86 153 168 168 181 176 158 168 188 193 181 153 124 138 158 149 115 122 207 195 211 222 233 244 247 259 272
156 156 162 162 162 164 169 177 179 178 177 175 173 171 174 176 177 181 179 174 171 169 169 164 156 152 149 143 141 142 140 138 136 131 127 121 117 111 100 96 93 93 103 106 96 92 84 80 91 103 100 100 107 106 95 91 94 85 75 90 126 137 156 166 153 141 168 195 194 173 153 140 139 139 149 151 155 214 209 205 235 255 253 254 257
164 163 167 166 168 173 175 180 185 185 181 178 175 173 175 178 177 181 182 177 173 173 175 172 165 160 153 147 148 148 141 138 138 132 127 121 117 116 110 103 99 96 96 98 98 95 86 81 83 91 93 95 101 103 101 100 101 95 83 84 98 104 114 137 141 132 129 147 170 173 174 168 156 162 175 145 127 161 229 244 260 257 246 245 243
162 161 167 168 174 179 180 182 187 188 184 181 178 175 176 177 176 179 182 182 180 178 177 175 169 160 153 152 153 149 141 139 139 134 129 127 124 123 120 113 108 106 102 97 99 99 94 89 83 82 83 84 89 97 104 105 102 98 92 90 91 89 91 109 118 111 103 101 98 146 199 194 159 122 63 70 116 142 261 280 285 273 256 256 245
162 166 167 173 179 181 181 181 184 185 186 184 180 177 174 171 172 178 185 187 186 183 179 175 166 158 159 160 154 147 144 142 141 137 134 134 132 127 123 122 119 117 114 109 107 104 104 102 92 85 84 81 79 84 92 94 94 94 94 96 95 95 96 103 106 97 91 91 81 77 102 146 137 71 47 46 62 130 315 288 333 338 299 328 329
171 174 168 169 172 175 177 180 180 181 186 188 185 183 178 170 167 173 188 192 190 187 182 175 166 163 168 166 156 151 150 148 145 142 141 138 135 129 127 130 129 126 124 119 115 109 105 108 105 99 96 91 82 82 86 86 91 96 99 103 102 100 102 103 103 97 92 88 81 81 88 95 92 76 63 60 61 54 21 328 355 360 357 16 17
145 160 158 149 149 162 173 181 182 179 182 186 187 188 182 175 171 173 189 197 193 190 185 178 171 170 172 167 161 158 156 155 151 147 146 142 139 137 134 132 128 127 125 117 117 115 106 106 113 112 108 104 97 93 91 93 100 102 102 104 106 107 108 108 102 97 94 85 78 79 83 84 82 77 69 64 61 50 46 30 3 6 2 353 3
91 99 101 115 132 167 180 182 180 180 184 184 186 188 183 179 178 178 188 200 198 193 189 184 177 173 174 169 164 161 160 159 153 150 149 146 144 143 141 136 130 131 129 120 118 116 109 107 113 117 114 114 113 105 96 100 102 103 106 104 103 107 113 117 109 98 93 87 80 76 76 79 78 73 70 70 67 55 52 40 10 12 11 347 349
80 79 80 86 88 139 186 187 180 179 183 183 185 185 180 177 182 184 188 200 204 196 191 188 182 176 175 171 165 163 164 161 154 153 151 147 149 150 149 146 139 137 134 125 119 115 115 113 112 115 117 120 120 112 106 110 101 98 105 102 96 98 106 117 118 111 103 95 91 87 83 82 75 69 67 64 64 57 54 46 20 13 8 356 352
82 79 74 65 61 61 98 190 191 183 177 179 182 180 174 174 183 190 191 196 207 201 193 190 185 181 178 172 167 164 164 161 156 156 153 149 153 155 156 155 148 144 139 130 125 123 126 126 118 115 117 123 123 115 111 115 107 102 105 101 97 95 94 103 111 115 110 95 92 91 86 87 78 66 62 60 66 62 54 50 41 38 18 357 346
80 76 64 47 48 49 49 108 183 182 173 175 176 171 170 175 185 193 194 197 214 212 198 191 188 188 182 171 167 164 162 160 157 159 158 154 156 159 163 163 157 152 148 141 139 142 146 141 133 127 122 123 124 120 115 112 109 112 112 105 102 99 94 98 105 114 114 99 90 84 77 85 79 59 59 63 74 76 63 52 44 50 57 7 341
67 73 76 60 52 53 51 65 117 151 163 177 180 178 180 182 187 192 193 197 211 211 192 192 191 195 189 172 167 162 160 160 161 162 163 159 157 158 163 165 164 162 159 153 151 158 166 162 151 146 137 133 132 134 136 132 123 115 117 113 110 114 105 99 106 117 125 117 103 92 79 87 88 72 67 66 73 81 71 57 42 43 56 54 29
64 61 68 70 66 69 66 64 84 117 140 164 177 186 191 192 194 193 190 191 187 173 175 186 188 194 196 179 170 164 159 160 164 164 163 164 162 158 158 165 169 168 165 163 162 167 176 178 177 171 162 153 148 151 157 153 151 139 134 138 140 139 129 117 121 120 127 132 122 111 100 98 103 96 84 72 70 78 73 64 61 50 49 66 86
65 53 54 59 59 69 77 73 77 92 103 127 153 172 183 192 199 194 183 177 174 173 178 181 178 187 199 188 176 172 167 166 170 169 166 164 164 161 159 162 168 171 171 171 171 175 183 187 193 197 193 184 166 165 172 167 168 173 164 166 166 149 145 150 158 142 129 136 134 130 117 103 112 113 107 96 71 67 66 66 84 86 66 57 47
79 67 56 54 57 64 73 74 74 79 81 86 94 106 125 162 174 172 169 168 170 173 178 178 175 180 191 188 180 178 176 176 177 177 173 165 160 163 166 168 171 174 176 181 182 183 188 194 201 209 210 208 190 180 190 187 180 187 187 186 184 168 174 186 170 159 139 132 135 139 119 101 126 130 127 127 107 62 45 30 45 76 74 37 306
100 88 67 61 66 68 70 70 72 75 74 72 70 66 52 61 139 155 155 159 164 169 176 179 176 173 180 185 181 177 174 170 167 172 174 167 158 158 163 171 176 178 182 189 194 196 202 204 206 214 219 221 214 198 200 202 198 203 205 206 204 188 193 208 185 175 180 151 143 165 263 18 114 120 140 145 124 104 79 27 22 33 27 360 322
117 111 97 77 75 75 71 69 72 74 74 72 68 66 62 65 103 140 148 153 158 162 172 179 175 171 179 186 185 182 177 168 159 163 166 166 165 161 159 164 172 182 192 198 203 209 214 214 212 217 221 225 227 217 208 209 209 211 215 218 217 202 201 213 207 197 205 204 189 201 234 247 280 71 142 149 112 103 101 60 60 61 22 8 348
117 122 124 104 92 90 83 77 78 78 77 79 74 71 71 73 84 105 127 150 159 160 167 173 172 174 179 180 180 179 180 180 176 173 174 174 175 176 175 172 171 178 191 203 212 218 219 216 216 219 221 224 228 226 220 219 218 217 220 224 224 217 211 216 217 213 214 217 208 201 208 225 246 259 144 128 99 97 115 44 29 39 10 350 342
103 114 119 115 108 103 97 89 86 86 85 84 81 79 79 79 82 88 99 126 154 163 166 166 164 167 167 166 169 169 170 177 185 190 194 193 189 190 193 192 189 188 192 199 206 212 215 217 220 222 222 222 225 226 225 224 224 222 222 224 225 223 218 218 221 219 219 223 220 211 209 221 240 243 188 163 200 210 219 224 236 255 267 291 302
119 126 126 126 124 117 115 108 96 95 97 94 89 84 84 86 86 88 96 106 120 141 156 161 157 152 150 155 168 178 182 191 197 198 200 202 202 202 202 202 204 206 207 207 207 208 210 213 219 223 225 226 229 229 227 226 226 224 222 221 223 224 223 222 224 222 221 225 225 220 214 220 234 235 214 226 240 235 238 243 251 263 264 277 290
136 136 137 135 133 131 130 125 116 111 108 102 98 92 85 83 86 92 100 105 108 115 128 140 147 146 143 142 155 172 191 207 215 211 206 207 213 215 214 214 217 218 219 222 225 225 222 218 220 226 230 233 232 228 226 224 224 224 222 220 220 223 225 224 224 224 224 226 224 219 212 215 224 227 222 230 242 245 253 262 267 273 278 282 289
117 107 102 99 113 130 135 135 133 127 119 110 103 100 97 91 88 93 103 111 113 111 114 122 134 147 155 156 153 156 166 184 203 212 210 211 217 220 221 223 229 233 234 236 236 233 234 242 249 248 243 241 237 231 228 225 224 224 223 223 222 221 223 223 223 223 222 220 214 207 209 217 224 230 230 233 244 252 259 274 283 283 284 287 292
100 88 85 83 78 85 116 131 135 129 124 122 116 110 107 105 103 103 106 110 113 113 116 125 134 141 149 154 158 162 162 166 178 194 204 211 216 222 226 230 238 244 246 247 245 243 250 261 266 260 248 247 250 242 235 234 232 227 222 225 226 222 219 219 218 218 217 214 211 209 215 223 229 234 238 242 248 251 261 288 296 289 288 291 294
126 111 98 90 82 69 75 97 111 114 114 118 121 122 119 117 117 117 116 117 121 124 125 130 136 139 141 142 145 151 153 152 160 176 191 202 209 218 226 233 242 246 249 253 254 254 259 263 265 261 251 248 251 250 245 244 242 235 225 223 227 226 220 216 213 212 212 211 213 217 221 224 231 238 245 250 249 249 270 295 300 292 291 294 294
137 133 119 102 92 81 70 75 88 102 111 118 122 124 127 131 131 129 126 126 131 137 139 142 143 142 145 146 145 148 148 149 158 172 185 201 214 224 230 235 243 250 255 259 260 259 260 261 261 260 255 251 250 251 250 248 247 244 235 226 225 226 222 216 212 208 206 209 213 216 218 220 230 241 246 249 250 255 274 290 293 288 289 291 293
145 150 137 128 115 95 81 76 73 79 103 121 130 132 133 138 144 147 145 136 137 142 143 144 146 147 153 155 151 149 156 164 166 158 162 189 208 221 231 237 245 255 261 260 258 257 257 259 260 260 257 255 254 255 253 250 247 248 245 236 231 228 221 216 212 206 204 206 208 210 212 218 230 241 244 247 253 264 277 285 286 281 278 278 286
185 170 144 139 138 125 109 95 84 76 73 75 105 141 144 139 138 142 144 144 150 154 144 141 146 150 152 150 145 140 142 153 156 151 152 169 174 182 225 245 256 266 268 263 261 259 257 256 256 257 259 261 262 261 259 257 254 254 253 245 237 232 222 215 210 206 205 205 206 210 214 222 232 238 241 247 256 267 278 283 283 277 269 270 278
184 154 126 117 115 111 103 92 87 85 68 58 68 108 125 121 111 119 135 155 166 168 163 158 159 158 147 141 144 143 127 127 139 146 149 159 197 263 286 292 293 295 292 285 278 272 265 259 254 254 259 265 270 270 266 264 263 261 256 247 240 234 222 212 205 202 202 204 208 212 216 221 227 232 238 247 257 266 275 279 277 271 264 263 270
51 70 81 79 82 91 91 85 83 83 73 61 64 88 103 113 134 138 165 195 191 189 187 176 168 168 161 158 165 169 153 138 141 143 144 187 257 274 290 298 298 296 293 291 293 289 280 270 265 263 265 268 271 273 270 269 271 269 260 249 240 228 214 205 201 199 202 206 210 214 218 218 221 228 238 246 255 263 270 270 265 258 256 262 274
61 66 61 63 69 76 82 83 82 80 61 34 21 73 123 162 214 195 199 220 243 235 199 181 184 192 180 183 198 193 186 187 190 197 214 238 257 270 278 282 284 285 285 281 282 285 284 279 273 269 269 270 270 271 270 270 271 271 261 242 225 211 201 196 195 197 198 200 201 204 206 204 207 220 233 242 252 259 261 258 254 253 260 272 280
55 69 71 62 45 32 52 78 76 62 44 28 21 28 25 357 323 216 202 220 248 261 244 194 194 197 193 212 224 201 190 193 200 208 219 228 246 260 266 271 275 277 280 281 280 279 280 282 281 275 268 265 264 265 266 264 264 262 246 223 209 199 192 188 187 190 192 192 192 193 195 202 221 238 247 255 260 262 260 258 261 268 274 279 284
84 82 81 76 44 11 33 70 62 44 28 16 7 359 354 347 333 318 306 282 263 258 254 238 222 212 214 231 236 211 200 205 209 216 229 236 244 253 258 265 273 276 278 280 282 282 280 279 281 281 273 261 254 253 255 255 254 246 227 212 201 192 185 182 179 182 187 190 192 199 211 237 256 258 257 258 257 257 258 262 269 275 277 279 281
90 93 79 76 277 240 126 92 54 32 14 352 338 336 343 342 326 319 314 309 303 291 274 261 248 235 228 230 231 226 228 229 224 225 233 236 241 252 260 263 270 278 279 279 282 287 285 277 273 275 271 258 246 242 243 243 236 224 213 203 193 184 178 175 175 175 181 189 203 223 241 251 254 250 248 249 252 255 261 267 274 277 281 282 284
32 54 49 29 351 333 86 105 53 12 352 328 307 302 311 314 309 305 297 294 296 296 293 291 284 271 259 249 248 250 249 245 237 235 239 245 251 258 259 259 266 275 281 283 284 285 281 273 266 263 256 243 232 227 225 222 214 207 203 196 186 179 173 171 175 177 180 198 222 231 232 236 239 241 247 253 258 263 269 276 284 291 295 297 298
13 17 16 14 358 344 346 10 1 343 330 318 303 291 286 283 282 283 281 279 282 285 289 291 288 283 274 266 264 263 260 257 254 252 253 254 256 257 256 258 266 275 283 287 286 280 270 255 245 240 229 218 213 204 198 200 201 199 196 191 184 180 176 172 170 168 164 172 198 214 220 235 245 251 258 262 267 277 285 292 299 303 305 307 309
344 338 338 344 343 334 328 326 324 315 299 289 286 281 276 272 269 267 267 269 271 272 274 275 275 274 268 261 259 258 257 257 257 256 254 251 249 249 251 257 268 279 285 284 272 249 229 208 199 204 198 191 193 187 180 184 191 192 191 191 186 179 174 169 164 161 159 157 178 227 249 278 278 271 269 275 291 302 305 307 310 311 314 320 323
334 331 329 328 323 317 313 312 313 310 297 285 277 272 268 265 262 261 262 265 266 267 269 271 274 276 273 267 263 261 260 260 261 260 256 251 245 245 247 254 270 279 277 259 223 200 185 169 162 167 172 172 175 178 177 178 181 181 180 183 180 170 165 164 161 160 158 157 201 304 303 286 276 272 280 299 312 314 313 316 320 323 327 330 328
324 324 325 325 319 311 305 302 303 304 304 300 292 284 276 268 262 263 268 269 267 266 270 274 279 283 283 279 275 272 268 266 265 263 261 257 255 254 253 255 264 265 243 202 183 174 160 149 146 150 161 168 169 173 176 176 176 175 171 172 172 167 165 168 167 162 159 169 267 301 272 256 269 284 300 311 315 314 316 322 324 325 326 324 318
315 314 313 311 306 300 295 293 294 297 300 300 294 293 294 286 282 287 290 284 279 274 272 274 279 282 284 284 282 281 280 277 273 270 268 266 263 257 249 246 247 238 208 178 166 164 156 148 146 151 160 167 168 170 172 172 172 172 170 171 174 175 182 197 201 207 214 212 231 270 278 283 295 303 308 312 308 303 308 311 309 314 320 318 315
323 320 313 304 300 304 306 305 304 307 312 315 313 311 313 311 312 315 313 306 299 290 282 278 276 276 276 276 275 274 274 273 271 268 265 263 260 252 242 235 226 212 195 176 165 165 163 156 154 157 164 169 171 170 169 167 169 170 170 173 182 190 193 193 192 201 210 214 232 266 286 294 300 305 309 308 303 303 305 304 305 313 321 325 326
325 326 324 322 328 339 342 339 337 337 341 343 340 334 330 327 325 324 321 317 312 304 296 290 284 278 273 268 266 267 268 268 269 269 266 264 260 248 231 217 204 193 186 177 171 170 170 165 163 169 174 174 173 172 170 170 171 169 163 160 164 168 167 166 178 200 221 260 279 285 292 297 304 317 326 329 329 328 325 320 320 324 327 332 334
319 324 330 337 342 343 343 344 342 340 338 335 332 329 326 325 324 321 318 316 314 309 304 300 295 291 285 274 265 262 264 268 271 272 273 273 259 230 202 192 189 185 181 178 175 174 173 172 173 178 179 176 172 169 168 167 164 158 153 156 161 167 175 184 209 261 299 311 312 316 328 342 359 6 4 3 2 359 353 345 338 335 332 332 332
315 318 326 335 337 335 336 337 336 335 334 329 323 318 316 315 314 313 311 307 304 300 297 294 291 289 289 283 272 263 259 261 264 265 261 239 210 199 191 190 195 199 196 189 182 179 182 186 185 179 173 170 170 171 170 166 162 160 162 165 170 173 176 219 305 323 326 324 342 59 55 43 31 18 8 6 2 356 351 344 336 331 326 323 322
314 317 322 324 325 325 329 334 338 339 335 329 323 319 316 312 308 306 303 299 296 292 288 285 283 281 280 279 275 269 262 253 244 239 232 212 192 189 192 194 199 207 209 202 194 193 196 196 189 181 176 174 171 171 171 167 163 164 167 167 166 157 119 75 65 65 64 79 89 73 54 37 19 5 360 360 356 350 345 339 333 329 325 322 319
325 322 320 318 322 332 339 340 339 337 332 327 322 317 313 310 307 303 300 297 294 290 283 279 278 277 274 273 271 268 263 253 235 218 208 195 179 175 183 189 193 200 203 203 205 206 201 192 182 179 181 178 171 166 167 166 161 161 160 153 147 136 111 91 88 96 94 83 69 58 49 31 13 7 6 2 353 346 341 338 334 331 328 324 320
315 314 318 323 327 333 334 330 328 327 323 318 314 309 306 305 303 302 301 299 297 293 285 277 272 269 268 267 266 264 258 242 220 203 191 179 166 161 166 175 184 198 205 201 197 193 191 188 180 169 166 168 166 161 160 160 159 158 154 149 144 133 116 99 91 95 91 68 51 50 47 30 19 18 16 5 354 348 343 339 336 332 328 325 320